Parkersburg, WV

5:54 PM EDT on October 18, 2019 (GMT -0400)
Wood County Wilson

Weather History for KPKB - August, 2019

Change the Weather History Date:

Thursday, August 8, 2019

  Actual Average Record
Temperature  
Mean Temperature 74 °F 74 °F  
Max Temperature 86 °F 85 °F 97 °F (1931)
Min Temperature 62 °F 64 °F 48 °F (1989)
Degree Days  
Heating Degree Days 0 0  
Month to date heating degree days 0 0  
Since 1 June heating degree days 16 20  
Since 1 July heating degree days 0 1  
Cooling Degree Days 9 9  
Month to date cooling degree days 86 72  
Year to date cooling degree days 783 639  
Since 1 June cooling degree days 638 555  
Growing Degree Days 23 (Base 50)    
Moisture  
Dew Point 64 °F    
Average Humidity 71    
Maximum Humidity 93    
Minimum Humidity 48    
Precipitation  
Precipitation 1.26 in 0.12 in 1.42 in (1962)
Month to date precipitation 2.54 0.97  
Year to date precipitation 31.98 26.15  
Sea Level Pressure  
Sea Level Pressure 29.89 in    
Wind  
Wind Speed 5 mph (SW)    
Max Wind Speed 25 mph    
Max Gust Speed 34 mph    
Visibility 7 miles    
Events Fog , Rain , Thunderstorm    
T = Trace of Precipitation, MM = Missing Value Source: NWS Daily Summary

Daily Weather History Graph

Daily Weather History Graph

Search for Another Location

Airport or City:

Astronomy

Aug. 08, 2019 Rise Set
Actual Time 6:31 AM EDT 8:30 PM EDT
Civil Twilight 6:02 AM EDT 8:59 PM EDT
Nautical Twilight 5:26 AM EDT 9:35 PM EDT
Astronomical Twilight 4:48 AM EDT 10:13 PM EDT
Moon 3:04 PM EDT (8/8) 12:52 AM EDT (8/8)
Length of Visible Light 14h 57m
Length of Day
13h 58m
First Quarter, 60% of the Moon is Illuminated
Aug 8
First Quarter
Aug 15
Full
Aug 23
Last Quarter
Aug 30
New
Sep 5
First Quarter

Hourly Weather History & Observations

Time (EDT) Temp. Heat Index Dew Point Humidity Pressure Visibility Wind Dir Wind Speed Gust Speed Precip Events Conditions
12:53 AM 66.0 °F - 64.0 °F 93% 29.87 in 9.0 mi Calm Calm - N/A   Clear
1:53 AM 66.0 °F - 63.0 °F 90% 29.86 in 9.0 mi Calm Calm - N/A   Clear
2:53 AM 64.0 °F - 62.1 °F 93% 29.86 in 6.0 mi Calm Calm - N/A   Clear
3:53 AM 64.0 °F - 62.1 °F 93% 29.86 in 10.0 mi Calm Calm - N/A   Clear
4:53 AM 64.0 °F - 62.1 °F 93% 29.86 in 7.0 mi SSE 3.5 mph - N/A   Clear
5:53 AM 62.1 °F - 61.0 °F 96% 29.86 in 4.0 mi Calm Calm - N/A   Clear
6:11 AM 62.1 °F - 60.1 °F 93% 29.88 in 1.8 mi Calm Calm - N/A   Clear
6:18 AM 62.1 °F - 60.1 °F 93% 29.89 in 3.0 mi Calm Calm - N/A   Clear
6:53 AM 64.0 °F - 62.1 °F 93% 29.87 in 5.0 mi South 3.5 mph - N/A   Clear
7:53 AM 66.9 °F - 64.0 °F 90% 29.88 in 9.0 mi Calm Calm - N/A   Clear
8:53 AM 71.1 °F - 64.9 °F 81% 29.88 in 10.0 mi SW 5.8 mph - N/A   Mostly Cloudy
9:53 AM 73.0 °F - 64.9 °F 76% 29.88 in 10.0 mi Variable 5.8 mph - N/A   Scattered Clouds
10:53 AM 79.0 °F - 64.9 °F 62% 29.88 in 10.0 mi Calm Calm - N/A   Partly Cloudy
11:53 AM 81.0 °F 82.7 °F 64.9 °F 58% 29.88 in 10.0 mi Calm Calm - N/A   Partly Cloudy
12:53 PM 82.9 °F 84.0 °F 63.0 °F 51% 29.88 in 10.0 mi West 17.3 mph - N/A   Mostly Cloudy
1:53 PM 84.9 °F 86.1 °F 64.0 °F 49% 29.87 in 10.0 mi WSW 9.2 mph 23.0 mph N/A   Partly Cloudy
2:53 PM 84.9 °F 85.9 °F 63.0 °F 48% 29.86 in 10.0 mi West 10.4 mph 18.4 mph N/A   Mostly Cloudy
3:53 PM 84.9 °F 86.1 °F 64.0 °F 49% 29.83 in 10.0 mi WSW 11.5 mph 19.6 mph N/A   Mostly Cloudy
4:53 PM 82.0 °F 83.4 °F 64.0 °F 54% 29.84 in 10.0 mi West 5.8 mph - N/A Thunderstorm Mostly Cloudy
5:31 PM 70.0 °F - 64.9 °F 84% 29.90 in 3.0 mi West 17.3 mph 24.2 mph 0.04 in Rain , Thunderstorm Thunderstorms and Rain
5:34 PM 69.1 °F - 64.9 °F 87% 29.91 in 3.0 mi West 18.4 mph 26.5 mph 0.08 in Rain , Thunderstorm Heavy Thunderstorms and Rain
5:53 PM 69.1 °F - 63.0 °F 81% 29.86 in 10.0 mi West 10.4 mph - 0.20 in Rain , Thunderstorm Light Thunderstorms and Rain
6:33 PM 68.0 °F - 62.1 °F 81% 29.94 in 0.5 mi NNW 21.9 mph 34.5 mph 0.13 in Rain , Thunderstorm Heavy Thunderstorms and Rain
6:36 PM 66.9 °F - 62.1 °F 84% 29.93 in 0.5 mi NNW 13.8 mph 34.5 mph 0.21 in Rain , Thunderstorm Heavy Thunderstorms and Rain
6:42 PM 66.0 °F - 63.0 °F 90% 29.91 in 0.5 mi NW 9.2 mph 23.0 mph 0.36 in Fog , Rain , Thunderstorm Heavy Thunderstorms and Rain
6:53 PM 66.9 °F - 64.9 °F 93% 29.89 in 0.5 mi West 12.7 mph 27.6 mph 0.61 in Rain , Thunderstorm Heavy Thunderstorms and Rain
6:58 PM 70.0 °F - 64.9 °F 84% 29.88 in 7.0 mi South 9.2 mph 23.0 mph 0.13 in Rain , Thunderstorm Light Rain
7:30 PM 68.0 °F - 66.0 °F 93% 29.91 in 9.0 mi SW 6.9 mph - 0.14 in   Overcast
7:38 PM 68.0 °F - 66.0 °F 93% 29.92 in 6.0 mi Calm Calm - 0.14 in Rain , Thunderstorm Light Rain
7:53 PM 68.0 °F - 66.0 °F 93% 29.90 in 6.0 mi NE 4.6 mph - 0.15 in Rain , Thunderstorm Light Rain
8:08 PM 68.0 °F - 66.0 °F 93% 29.89 in 8.0 mi South 6.9 mph - 0.00 in   Mostly Cloudy
8:14 PM 68.0 °F - 66.0 °F 93% 29.90 in 8.0 mi South 3.5 mph - 0.00 in Thunderstorm Mostly Cloudy
8:53 PM 68.0 °F - 66.0 °F 93% 29.89 in 10.0 mi Variable 4.6 mph - 0.10 in Thunderstorm Thunderstorm
9:16 PM 68.0 °F - 66.0 °F 93% 29.92 in 10.0 mi SSW 4.6 mph - N/A Thunderstorm Overcast
9:37 PM 68.0 °F - 64.9 °F 90% 29.91 in 10.0 mi East 4.6 mph - 0.01 in Rain Light Rain
9:53 PM 66.9 °F - 64.9 °F 93% 29.91 in 10.0 mi South 4.6 mph - 0.01 in   Scattered Clouds
10:53 PM 66.9 °F - 64.9 °F 93% 29.89 in 10.0 mi South 6.9 mph - 0.01 in Rain , Thunderstorm Light Rain
11:04 PM 66.9 °F - 64.9 °F 93% 29.92 in 2.5 mi South 6.9 mph - 0.07 in Rain Heavy Rain
11:14 PM 66.9 °F - 64.9 °F 93% 29.92 in 10.0 mi SSE 6.9 mph - 0.07 in Rain Light Rain
11:53 PM 66.9 °F - 64.9 °F 93% 29.89 in 10.0 mi South 4.6 mph - 0.07 in   Overcast